Time,TemperatureF,DewpointF,PressureIn,WindDirection,WindDirectionDegrees,WindSpeedMPH,WindSpeedGustMPH,Humidity,HourlyPrecipIn,Conditions,Clouds,dailyrainin,SolarRadiationWatts/m^2,SoftwareType,DateUTC
2013-01-11 00:00:00,48.6,44.3,30.00,SE,142,3.5,0.0,85,0.00,CLR,,0.04,0.0,WeatherDisplay:10.37,2013-01-11 06:00:00,
2013-01-11 00:05:00,48.6,44.3,30.00,SSE,155,3.5,3.5,85,0.00,RA,,0.00,0.0,WeatherDisplay:10.37,2013-01-11 06:05:00,
2013-01-11 00:10:00,48.5,44.2,30.00,SSE,162,2.3,2.3,85,0.00,RA,,0.00,0.0,WeatherDisplay:10.37,2013-01-11 06:10:00,
2013-01-11 00:15:00,48.5,44.2,30.00,SE,144,5.8,5.8,85,0.00,CLR,,0.00,0.0,WeatherDisplay:10.37,2013-01-11 06:15:00,
2013-01-11 00:20:00,48.5,44.2,29.99,SSE,155,3.5,3.5,85,0.00,CLR,,0.00,0.0,WeatherDisplay:10.37,2013-01-11 06:20:00,
2013-01-11 00:25:00,48.5,44.2,29.99,SSE,167,3.5,3.5,85,0.00,CLR,,0.00,0.0,WeatherDisplay:10.37,2013-01-11 06:25:00,
2013-01-11 00:30:00,48.5,44.2,29.99,SSE,167,1.2,1.2,85,0.00,CLR,,0.00,0.0,WeatherDisplay:10.37,2013-01-11 06:30:00,
2013-01-11 00:35:00,48.4,44.1,30.00,SSE,167,1.2,1.2,85,0.00,CLR,,0.00,0.0,WeatherDisplay:10.37,2013-01-11 06:35:00,
2013-01-11 00:40:00,48.4,44.1,30.00,SSE,149,1.2,0.0,85,0.00,CLR,,0.00,0.0,WeatherDisplay:10.37,2013-01-11 06:40:00,
2013-01-11 00:45:00,48.4,44.1,30.00,SSE,149,2.3,2.3,85,0.00,CLR,,0.00,0.0,WeatherDisplay:10.37,2013-01-11 06:45:00,
2013-01-11 00:51:00,48.4,44.1,30.00,SSE,150,1.2,1.2,85,0.00,CLR,,0.00,0.0,WeatherDisplay:10.37,2013-01-11 06:51:00,
2013-01-11 00:56:00,48.4,44.1,29.99,SSE,150,1.2,1.2,85,0.00,CLR,,0.00,0.0,WeatherDisplay:10.37,2013-01-11 06:56:00,
2013-01-11 01:00:00,48.4,44.4,29.99,SSE,149,0.0,0.0,86,0.00,CLR,,0.00,0.0,WeatherDisplay:10.37,2013-01-11 07:00:00,
2013-01-11 01:06:00,48.5,44.5,29.99,SSE,150,1.2,0.0,86,0.00,CLR,,0.00,0.0,WeatherDisplay:10.37,2013-01-11 07:06:00,
2013-01-11 01:11:00,48.7,44.7,29.99,SSW,199,3.5,3.5,86,0.00,CLR,,0.00,0.0,WeatherDisplay:10.37,2013-01-11 07:11:00,
2013-01-11 01:16:00,49.0,44.7,29.99,South,178,3.5,3.5,85,0.00,CLR,,0.00,0.0,WeatherDisplay:10.37,2013-01-11 07:16:00,
2013-01-11 01:21:00,49.3,45.0,29.99,South,185,3.5,3.5,85,0.00,CLR,,0.00,0.0,WeatherDisplay:10.37,2013-01-11 07:21:00,
2013-01-11 01:26:00,49.7,45.1,29.99,SW,223,3.5,3.5,84,0.00,CLR,,0.00,0.0,WeatherDisplay:10.37,2013-01-11 07:26:00,
2013-01-11 01:30:00,49.9,45.3,30.00,SW,222,5.0,5.0,84,0.00,CLR,,0.00,0.0,WeatherDisplay:10.37,2013-01-11 07:30:00,
2013-01-11 01:35:00,50.1,45.1,30.00,SSW,192,2.3,2.3,83,0.00,CLR,,0.00,0.0,WeatherDisplay:10.37,2013-01-11 07:35:00,
2013-01-11 01:41:00,50.2,44.9,30.00,South,180,4.6,4.6,82,0.00,CLR,,0.00,0.0,WeatherDisplay:10.37,2013-01-11 07:41:00,
2013-01-11 01:45:00,50.3,45.0,30.00,South,180,5.8,5.8,82,0.00,CLR,,0.00,0.0,WeatherDisplay:10.37,2013-01-11 07:45:00,
2013-01-11 01:51:00,50.3,45.0,29.99,SSW,203,4.6,4.6,82,0.00,CLR,,0.00,0.0,WeatherDisplay:10.37,2013-01-11 07:51:00,
2013-01-11 01:55:00,50.2,44.6,30.00,South,180,3.5,3.5,81,0.00,CLR,,0.00,0.0,WeatherDisplay:10.37,2013-01-11 07:55:00,
2013-01-11 02:01:00,50.1,44.5,30.00,SSE,156,3.5,3.5,81,0.00,CLR,,0.00,0.0,WeatherDisplay:10.37,2013-01-11 08:01:00,
2013-01-11 02:06:00,50.0,44.7,30.00,South,183,2.3,2.3,82,0.00,CLR,,0.00,0.0,WeatherDisplay:10.37,2013-01-11 08:06:00,
2013-01-11 02:11:00,49.8,44.5,30.00,SE,134,4.6,4.6,82,0.00,CLR,,0.00,0.0,WeatherDisplay:10.37,2013-01-11 08:11:00,
2013-01-11 02:16:00,49.5,44.2,30.00,SSE,154,2.3,2.3,82,0.00,CLR,,0.00,0.0,WeatherDisplay:10.37,2013-01-11 08:16:00,
2013-01-11 02:21:00,49.3,44.0,30.00,SSE,151,4.6,4.6,82,0.00,CLR,,0.00,0.0,WeatherDisplay:10.37,2013-01-11 08:21:00,
2013-01-11 02:26:00,49.2,44.3,30.00,SSE,163,3.5,3.5,83,0.00,CLR,,0.00,0.0,WeatherDisplay:10.37,2013-01-11 08:26:00,
2013-01-11 02:31:00,49.1,44.2,30.00,SSE,160,2.3,2.3,83,0.00,CLR,,0.00,0.0,WeatherDisplay:10.37,2013-01-11 08:31:00,
2013-01-11 02:36:00,49.0,44.1,30.00,SSE,161,1.2,0.0,83,0.00,CLR,,0.00,0.0,WeatherDisplay:10.37,2013-01-11 08:36:00,
2013-01-11 02:41:00,48.8,43.9,29.99,SSE,165,2.3,2.3,83,0.00,CLR,,0.00,0.0,WeatherDisplay:10.37,2013-01-11 08:41:00,
2013-01-11 02:46:00,48.7,43.8,29.99,SSE,165,1.2,0.0,83,0.00,CLR,,0.00,0.0,WeatherDisplay:10.37,2013-01-11 08:46:00,
2013-01-11 02:51:00,48.6,44.0,29.99,SSE,152,3.5,3.5,84,0.00,CLR,,0.00,0.0,WeatherDisplay:10.37,2013-01-11 08:51:00,
2013-01-11 02:56:00,48.5,43.9,29.99,SSE,160,2.3,2.3,84,0.00,CLR,,0.00,0.0,WeatherDisplay:10.37,2013-01-11 08:56:00,
2013-01-11 03:01:00,48.5,43.9,29.99,SSE,160,1.2,1.2,84,0.00,CLR,,0.00,0.0,WeatherDisplay:10.37,2013-01-11 09:01:00,
2013-01-11 03:06:00,48.4,43.8,29.99,SE,143,4.6,4.6,84,0.00,CLR,,0.00,0.0,WeatherDisplay:10.37,2013-01-11 09:06:00,
2013-01-11 03:11:00,48.3,43.7,29.99,SE,146,3.5,3.5,84,0.00,CLR,,0.00,0.0,WeatherDisplay:10.37,2013-01-11 09:11:00,
2013-01-11 03:16:00,48.3,43.7,29.99,SSE,149,1.2,1.2,84,0.00,CLR,,0.00,0.0,WeatherDisplay:10.37,2013-01-11 09:16:00,
2013-01-11 03:21:00,48.2,43.6,29.99,SSE,150,1.2,0.0,84,0.00,CLR,,0.00,0.0,WeatherDisplay:10.37,2013-01-11 09:21:00,
2013-01-11 03:26:00,48.1,43.5,29.99,SSE,150,1.2,0.0,84,0.00,CLR,,0.00,0.0,WeatherDisplay:10.37,2013-01-11 09:26:00,
2013-01-11 03:31:00,48.0,43.4,29.98,SSE,149,1.2,1.2,84,0.00,CLR,,0.00,0.0,WeatherDisplay:10.37,2013-01-11 09:31:00,
2013-01-11 03:36:00,48.0,43.4,29.98,SSE,160,3.5,3.5,84,0.00,CLR,,0.00,0.0,WeatherDisplay:10.37,2013-01-11 09:36:00,
2013-01-11 03:41:00,48.1,43.8,29.98,South,180,3.5,3.5,85,0.00,CLR,,0.00,0.0,WeatherDisplay:10.37,2013-01-11 09:41:00,
2013-01-11 03:46:00,48.4,43.8,29.97,South,180,3.5,3.5,84,0.00,CLR,,0.00,0.0,WeatherDisplay:10.37,2013-01-11 09:46:00,
2013-01-11 03:51:00,48.6,44.0,29.97,South,178,4.6,4.6,84,0.00,CLR,,0.00,0.0,WeatherDisplay:10.37,2013-01-11 09:51:00,
2013-01-11 03:56:00,48.7,43.8,29.97,South,180,3.5,3.5,83,0.00,CLR,,0.00,0.0,WeatherDisplay:10.37,2013-01-11 09:56:00,
2013-01-11 04:01:00,48.8,43.9,29.96,South,182,3.5,3.5,83,0.00,CLR,,0.00,0.0,WeatherDisplay:10.37,2013-01-11 10:01:00,
2013-01-11 04:06:00,49.0,44.1,29.95,South,173,3.5,3.5,83,0.00,CLR,,0.00,0.0,WeatherDisplay:10.37,2013-01-11 10:06:00,
2013-01-11 04:11:00,49.1,43.8,29.95,South,177,2.3,2.3,82,0.00,CLR,,0.00,0.0,WeatherDisplay:10.37,2013-01-11 10:11:00,
2013-01-11 04:16:00,49.2,43.9,29.95,South,182,3.5,3.5,82,0.00,CLR,,0.00,0.0,WeatherDisplay:10.37,2013-01-11 10:16:00,
2013-01-11 04:21:00,49.2,43.9,29.94,South,182,3.5,3.5,82,0.00,CLR,,0.00,0.0,WeatherDisplay:10.37,2013-01-11 10:21:00,
2013-01-11 04:26:00,49.4,43.8,29.94,South,188,3.5,3.5,81,0.00,CLR,,0.00,0.0,WeatherDisplay:10.37,2013-01-11 10:26:00,
2013-01-11 04:31:00,49.6,44.0,29.94,SSE,165,3.5,3.5,81,0.00,CLR,,0.00,0.0,WeatherDisplay:10.37,2013-01-11 10:31:00,
2013-01-11 04:36:00,49.8,43.9,29.94,SW,223,4.6,4.6,80,0.00,CLR,,0.00,0.0,WeatherDisplay:10.37,2013-01-11 10:36:00,
2013-01-11 04:41:00,50.0,45.0,29.94,South,182,3.5,3.5,83,0.00,CLR,,0.00,0.0,WeatherDisplay:10.37,2013-01-11 10:41:00,
2013-01-11 04:46:00,50.2,44.3,29.94,SSE,164,3.5,3.5,80,0.00,CLR,,0.00,0.0,WeatherDisplay:10.37,2013-01-11 10:46:00,
2013-01-11 04:51:00,50.4,44.1,29.94,SSW,211,2.3,2.3,79,0.00,CLR,,0.00,0.0,WeatherDisplay:10.37,2013-01-11 10:51:00,
2013-01-11 04:56:00,50.3,44.0,29.94,SSW,211,0.0,0.1,79,0.00,CLR,,0.00,0.0,WeatherDisplay:10.37,2013-01-11 10:56:00,
2013-01-11 05:01:00,50.0,43.7,29.94,SSW,211,1.2,0.0,79,0.00,CLR,,0.00,0.0,WeatherDisplay:10.37,2013-01-11 11:01:00,
2013-01-11 05:06:00,49.8,43.5,29.95,SSW,211,1.2,0.0,79,0.00,CLR,,0.00,0.0,WeatherDisplay:10.37,2013-01-11 11:06:00,
2013-01-11 05:11:00,49.5,43.6,29.95,South,177,2.3,2.3,80,0.00,CLR,,0.00,0.0,WeatherDisplay:10.37,2013-01-11 11:11:00,
2013-01-11 05:16:00,49.2,43.3,29.95,South,176,1.2,1.2,80,0.00,CLR,,0.00,0.0,WeatherDisplay:10.37,2013-01-11 11:16:00,
2013-01-11 05:21:00,49.0,43.1,29.95,South,175,2.3,2.3,80,0.00,CLR,,0.00,0.0,WeatherDisplay:10.37,2013-01-11 11:21:00,
2013-01-11 05:26:00,48.6,43.0,29.95,South,175,1.2,1.2,81,0.00,CLR,,0.00,0.0,WeatherDisplay:10.37,2013-01-11 11:26:00,
2013-01-11 05:31:00,48.5,43.3,29.95,South,176,4.6,4.6,82,0.00,CLR,,0.00,0.0,WeatherDisplay:10.37,2013-01-11 11:31:00,
2013-01-11 05:36:00,48.3,43.1,29.95,SE,133,3.5,3.5,82,0.00,CLR,,0.00,0.0,WeatherDisplay:10.37,2013-01-11 11:36:00,
2013-01-11 05:41:00,48.2,43.0,29.94,South,173,4.6,4.6,82,0.00,CLR,,0.00,0.0,WeatherDisplay:10.37,2013-01-11 11:41:00,
2013-01-11 05:46:00,48.1,43.2,29.94,SSW,198,3.5,3.5,83,0.00,CLR,,0.00,0.0,WeatherDisplay:10.37,2013-01-11 11:46:00,
2013-01-11 05:51:00,48.2,43.3,29.94,South,182,3.5,3.5,83,0.00,CLR,,0.00,0.0,WeatherDisplay:10.37,2013-01-11 11:51:00,
2013-01-11 05:56:00,48.3,43.1,29.94,SSW,205,5.8,5.8,82,0.00,CLR,,0.00,0.0,WeatherDisplay:10.37,2013-01-11 11:56:00,
2013-01-11 06:01:00,48.5,43.3,29.95,South,179,3.5,3.5,82,0.00,CLR,,0.00,0.0,WeatherDisplay:10.37,2013-01-11 12:01:00,
2013-01-11 06:06:00,48.7,43.5,29.95,SSW,207,6.9,6.9,82,0.00,CLR,,0.00,0.0,WeatherDisplay:10.37,2013-01-11 12:06:00,
2013-01-11 06:11:00,48.8,43.2,29.95,South,173,3.5,3.5,81,0.00,CLR,,0.00,0.0,WeatherDisplay:10.37,2013-01-11 12:11:00,
2013-01-11 06:16:00,49.0,43.4,29.95,SSW,202,3.5,3.5,81,0.00,CLR,,0.00,0.0,WeatherDisplay:10.37,2013-01-11 12:16:00,
2013-01-11 06:21:00,49.2,43.6,29.95,SSW,209,4.6,4.6,81,0.00,CLR,,0.00,0.0,WeatherDisplay:10.37,2013-01-11 12:21:00,
2013-01-11 06:26:00,49.5,43.6,29.95,SSW,209,5.8,5.8,80,0.00,CLR,,0.00,0.0,WeatherDisplay:10.37,2013-01-11 12:26:00,
2013-01-11 06:31:00,49.7,43.5,29.95,SSW,200,3.5,3.5,79,0.00,CLR,,0.00,0.0,WeatherDisplay:10.37,2013-01-11 12:31:00,
2013-01-11 06:36:00,49.7,43.5,29.95,South,184,2.3,2.3,79,0.00,CLR,,0.00,0.0,WeatherDisplay:10.37,2013-01-11 12:36:00,
2013-01-11 06:41:00,49.7,43.5,29.95,South,186,3.5,3.5,79,0.00,CLR,,0.00,0.0,WeatherDisplay:10.37,2013-01-11 12:41:00,
2013-01-11 06:46:00,49.6,43.4,29.95,South,180,3.5,3.5,79,0.00,CLR,,0.00,0.0,WeatherDisplay:10.37,2013-01-11 12:46:00,
2013-01-11 06:51:00,49.7,43.5,29.95,South,180,3.5,3.5,79,0.00,CLR,,0.00,0.0,WeatherDisplay:10.37,2013-01-11 12:51:00,
2013-01-11 06:56:00,49.6,43.4,29.95,South,179,0.0,0.0,79,0.00,CLR,,0.00,0.0,WeatherDisplay:10.37,2013-01-11 12:56:00,
2013-01-11 07:01:00,49.5,43.3,29.96,South,179,2.3,2.3,79,0.00,CLR,,0.00,0.0,WeatherDisplay:10.37,2013-01-11 13:01:00,
2013-01-11 07:06:00,49.4,43.2,29.96,South,179,0.0,0.0,79,0.00,CLR,,0.00,0.0,WeatherDisplay:10.37,2013-01-11 13:06:00,
2013-01-11 07:11:00,49.3,43.4,29.96,South,179,2.0,2.0,80,0.00,CLR,,0.00,0.0,WeatherDisplay:10.37,2013-01-11 13:11:00,
2013-01-11 07:16:00,49.4,43.5,29.96,SW,223,3.5,3.5,80,0.00,CLR,,0.00,0.0,WeatherDisplay:10.37,2013-01-11 13:16:00,
2013-01-11 07:21:00,49.6,43.7,29.96,SSE,153,3.5,3.5,80,0.00,CLR,,0.00,0.0,WeatherDisplay:10.37,2013-01-11 13:21:00,
2013-01-11 07:26:00,50.0,43.7,29.95,SW,227,5.8,5.8,79,0.00,CLR,,0.00,0.0,WeatherDisplay:10.37,2013-01-11 13:26:00,
2013-01-11 07:31:00,50.2,43.9,29.95,SSW,198,3.5,3.5,79,0.00,CLR,,0.00,0.0,WeatherDisplay:10.37,2013-01-11 13:31:00,
2013-01-11 07:36:00,50.6,44.0,29.95,South,189,4.6,4.6,78,0.00,CLR,,0.00,0.0,WeatherDisplay:10.37,2013-01-11 13:36:00,
2013-01-11 07:41:00,50.9,44.3,29.95,WSW,237,2.3,2.3,78,0.00,CLR,,0.00,0.5,WeatherDisplay:10.37,2013-01-11 13:41:00,
2013-01-11 07:46:00,51.0,44.0,29.95,SSW,195,2.3,2.3,77,0.00,CLR,,0.00,0.7,WeatherDisplay:10.37,2013-01-11 13:46:00,
2013-01-11 07:51:00,51.2,44.2,29.95,SSE,159,4.6,4.6,77,0.00,CLR,,0.00,1.2,WeatherDisplay:10.37,2013-01-11 13:51:00,
2013-01-11 07:56:00,51.5,44.5,29.95,SW,217,6.9,6.9,77,0.00,CLR,,0.00,1.6,WeatherDisplay:10.37,2013-01-11 13:56:00,
2013-01-11 08:01:00,51.7,44.4,29.95,SSW,192,3.5,3.5,76,0.00,CLR,,0.00,2.1,WeatherDisplay:10.37,2013-01-11 14:01:00,
2013-01-11 08:06:00,51.9,44.6,29.95,South,182,3.5,0.0,76,0.00,CLR,,0.00,2.5,WeatherDisplay:10.37,2013-01-11 14:06:00,
2013-01-11 08:11:00,52.0,44.7,29.95,SSW,192,3.5,3.5,76,0.00,CLR,,0.00,3.0,WeatherDisplay:10.37,2013-01-11 14:11:00,
2013-01-11 08:16:00,52.2,44.9,29.95,SSW,200,3.5,3.5,76,0.00,CLR,,0.00,3.5,WeatherDisplay:10.37,2013-01-11 14:16:00,
2013-01-11 08:21:00,52.3,45.0,29.95,WSW,253,3.5,3.5,76,0.00,CLR,,0.00,4.7,WeatherDisplay:10.37,2013-01-11 14:21:00,
2013-01-11 08:26:00,52.6,45.2,29.95,SW,229,3.5,3.5,76,0.00,CLR,,0.00,7.4,WeatherDisplay:10.37,2013-01-11 14:26:00,
2013-01-11 08:31:00,53.2,45.8,29.95,South,190,4.6,4.6,76,0.00,CLR,,0.00,9.5,WeatherDisplay:10.37,2013-01-11 14:31:00,
2013-01-11 08:36:00,53.5,45.8,29.95,SW,229,5.8,5.8,75,0.00,CLR,,0.00,13.9,WeatherDisplay:10.37,2013-01-11 14:36:00,
2013-01-11 08:41:00,53.9,46.2,29.95,SW,217,3.5,3.5,75,0.00,CLR,,0.00,8.1,WeatherDisplay:10.37,2013-01-11 14:41:00,
2013-01-11 08:46:00,54.1,46.3,29.96,SSW,207,3.5,3.5,75,0.00,CLR,,0.00,25.7,WeatherDisplay:10.37,2013-01-11 14:46:00,
2013-01-11 08:51:00,54.5,47.1,29.96,South,188,3.5,3.5,76,0.00,CLR,,0.00,21.3,WeatherDisplay:10.37,2013-01-11 14:51:00,
2013-01-11 08:56:00,54.9,46.8,29.96,SSW,207,6.9,6.9,74,0.00,CLR,,0.00,19.5,WeatherDisplay:10.37,2013-01-11 14:56:00,
2013-01-11 09:01:00,55.4,46.9,29.96,South,187,5.8,5.8,73,0.00,OVC,,0.00,19.5,WeatherDisplay:10.37,2013-01-11 15:01:00,
2013-01-11 09:06:00,55.8,47.3,29.96,SSE,152,3.5,3.5,73,0.00,OVC,,0.00,28.8,WeatherDisplay:10.37,2013-01-11 15:06:00,
2013-01-11 09:11:00,56.2,47.3,29.96,South,178,3.5,3.5,72,0.00,OVC,,0.00,33.2,WeatherDisplay:10.37,2013-01-11 15:11:00,
2013-01-11 09:16:00,56.5,47.6,29.96,West,261,4.6,4.6,72,0.00,OVC,,0.00,28.1,WeatherDisplay:10.37,2013-01-11 15:16:00,
2013-01-11 09:21:00,56.6,47.3,29.96,SSW,198,4.0,4.0,71,0.00,OVC,,0.00,31.3,WeatherDisplay:10.37,2013-01-11 15:21:00,
2013-01-11 09:26:00,56.9,48.0,29.96,South,171,3.5,3.5,72,0.00,OVC,,0.00,37.1,WeatherDisplay:10.37,2013-01-11 15:26:00,
2013-01-11 09:31:00,57.2,47.9,29.96,South,182,4.6,4.6,71,0.00,OVC,,0.00,33.2,WeatherDisplay:10.37,2013-01-11 15:31:00,
2013-01-11 09:36:00,57.3,48.0,29.96,SSW,207,3.5,3.5,71,0.00,OVC,,0.00,37.8,WeatherDisplay:10.37,2013-01-11 15:36:00,
2013-01-11 09:41:00,57.8,48.5,29.95,SSW,210,2.3,2.3,71,0.00,OVC,,0.00,38.8,WeatherDisplay:10.37,2013-01-11 15:41:00,
2013-01-11 09:46:00,58.3,48.6,29.95,SSW,205,4.6,4.6,70,0.00,OVC,,0.00,45.7,WeatherDisplay:10.37,2013-01-11 15:46:00,
2013-01-11 09:51:00,58.7,48.9,29.95,SW,224,4.6,4.6,70,0.00,OVC,,0.00,46.6,WeatherDisplay:10.37,2013-01-11 15:51:00,
2013-01-11 09:56:00,59.0,49.6,29.95,West,276,4.6,4.6,71,0.00,OVC,,0.00,34.5,WeatherDisplay:10.37,2013-01-11 15:56:00,
2013-01-11 10:01:00,59.0,48.8,29.95,SW,229,9.2,9.2,69,0.00,OVC,,0.00,19.0,WeatherDisplay:10.37,2013-01-11 16:01:00,
2013-01-11 10:04:00,59.0,48.8,29.95,SSE,157,4.6,4.6,69,0.00,OVC,,0.00,21.6,WeatherDisplay:10.37,2013-01-11 16:04:00,
2013-01-11 10:10:00,59.0,48.8,29.95,SSE,157,4.6,4.6,69,0.00,OVC,,0.00,21.6,WeatherDisplay:10.37,2013-01-11 16:10:00,
2013-01-11 10:21:00,60.6,50.0,29.96,SW,233,4.6,4.6,68,0.00,OVC,,0.00,42.4,WeatherDisplay:10.37,2013-01-11 16:21:00,
2013-01-11 10:57:00,62.6,50.2,29.94,SW,221,4.6,4.6,64,0.00,OVC,,0.00,53.6,WeatherDisplay:10.37,2013-01-11 16:57:00,
2013-01-11 11:24:00,64.4,50.2,29.93,SSW,210,5.8,5.8,60,0.00,OVC,,0.00,61.2,WeatherDisplay:10.37,2013-01-11 17:24:00,
2013-01-11 11:26:00,64.4,50.2,29.93,SSW,210,5.8,5.8,60,0.00,OVC,,0.00,61.2,WeatherDisplay:10.37,2013-01-11 17:26:00,
2013-01-11 11:32:00,64.4,50.2,29.93,SSW,210,5.8,5.8,60,0.00,OVC,,0.00,61.2,WeatherDisplay:10.37,2013-01-11 17:32:00,
2013-01-11 11:42:00,65.5,49.9,29.90,SSW,193,9.2,9.2,57,0.00,OVC,,0.00,22.0,WeatherDisplay:10.37,2013-01-11 17:42:00,
2013-01-11 12:01:00,65.3,49.2,29.90,SSW,199,9.2,9.2,56,0.00,OVC,,0.00,36.9,WeatherDisplay:10.37,2013-01-11 18:01:00,
2013-01-11 12:06:00,65.2,49.6,29.89,South,183,4.6,4.6,57,0.00,OVC,,0.00,23.6,WeatherDisplay:10.37,2013-01-11 18:06:00,
2013-01-11 12:11:00,65.3,49.7,29.89,SSW,209,9.2,9.2,57,0.00,OVC,,0.00,44.3,WeatherDisplay:10.37,2013-01-11 18:11:00,
2013-01-11 12:16:00,65.6,50.0,29.89,SSW,205,3.5,3.5,57,0.00,OVC,,0.00,42.5,WeatherDisplay:10.37,2013-01-11 18:16:00,
2013-01-11 12:21:00,65.5,49.9,29.89,South,182,6.9,6.9,57,0.00,OVC,,0.00,21.4,WeatherDisplay:10.37,2013-01-11 18:21:00,
2013-01-11 12:26:00,65.3,50.1,29.89,NW,311,5.8,5.8,58,0.00,OVC,,0.00,54.7,WeatherDisplay:10.37,2013-01-11 18:26:00,
2013-01-11 12:31:00,65.8,50.6,29.89,SSW,193,4.6,4.6,58,0.00,OVC,,0.00,44.8,WeatherDisplay:10.37,2013-01-11 18:31:00,
2013-01-11 12:36:00,66.0,51.3,29.88,South,179,5.8,5.8,59,0.00,OVC,,0.00,30.4,WeatherDisplay:10.37,2013-01-11 18:36:00,
2013-01-11 12:37:00,66.4,51.6,29.88,South,191,7.0,7.0,59,0.00,OVC,,0.00,24.4,WeatherDisplay:10.37,2013-01-11 18:37:00,
2013-01-11 12:42:00,66.4,51.6,29.88,South,191,7.0,7.0,59,0.00,OVC,,0.00,24.4,WeatherDisplay:10.37,2013-01-11 18:42:00,
2013-01-11 12:50:00,66.4,52.1,29.86,SSE,167,9.2,9.2,60,0.00,OVC,,0.00,19.2,WeatherDisplay:10.37,2013-01-11 18:50:00,
2013-01-11 12:55:00,66.4,52.1,29.86,SSE,167,9.2,9.2,60,0.00,OVC,,0.00,19.2,WeatherDisplay:10.37,2013-01-11 18:55:00,
2013-01-11 13:00:00,65.7,52.3,29.84,South,180,11.5,11.5,62,0.00,OVC,,0.00,22.0,WeatherDisplay:10.37,2013-01-11 19:00:00,
2013-01-11 13:05:00,65.4,52.9,29.84,SSW,192,5.8,5.8,64,0.00,OVC,,0.00,20.6,WeatherDisplay:10.37,2013-01-11 19:05:00,
2013-01-11 13:10:00,65.2,53.1,29.84,SE,137,10.4,10.4,65,0.00,OVC,,0.00,24.4,WeatherDisplay:10.37,2013-01-11 19:10:00,
2013-01-11 13:15:00,65.6,53.5,29.84,SE,135,5.8,5.8,65,0.00,OVC,,0.00,25.1,WeatherDisplay:10.37,2013-01-11 19:15:00,
2013-01-11 13:20:00,65.8,53.7,29.84,SW,225,5.8,5.8,65,0.00,OVC,,0.00,20.9,WeatherDisplay:10.37,2013-01-11 19:20:00,
2013-01-11 13:25:00,66.1,53.1,29.84,SSE,167,11.5,11.5,63,0.00,OVC,,0.00,20.4,WeatherDisplay:10.37,2013-01-11 19:25:00,
2013-01-11 13:30:00,66.7,52.8,29.84,SSW,200,9.2,9.2,61,0.00,OVC,,0.00,19.9,WeatherDisplay:10.37,2013-01-11 19:30:00,
2013-01-11 13:35:00,67.5,52.7,29.85,South,189,5.8,5.8,59,0.00,OVC,,0.00,16.7,WeatherDisplay:10.37,2013-01-11 19:35:00,
2013-01-11 13:40:00,68.1,52.8,29.84,South,171,9.2,9.2,58,0.00,OVC,,0.00,19.3,WeatherDisplay:10.37,2013-01-11 19:40:00,
2013-01-11 13:45:00,68.1,52.8,29.84,South,171,9.2,9.2,58,0.00,OVC,,0.00,19.3,WeatherDisplay:10.37,2013-01-11 19:45:00,
2013-01-11 13:50:00,68.8,54.3,29.84,South,171,5.8,5.8,60,0.00,OVC,,0.00,14.9,WeatherDisplay:10.37,2013-01-11 19:50:00,
2013-01-11 13:56:00,68.9,54.0,29.84,South,174,10.4,10.4,59,0.00,OVC,,0.00,14.4,WeatherDisplay:10.37,2013-01-11 19:56:00,
2013-01-11 14:01:00,68.9,54.0,29.83,WNW,302,3.5,3.5,59,0.00,OVC,,0.00,14.6,WeatherDisplay:10.37,2013-01-11 20:01:00,
2013-01-11 14:06:00,69.0,53.1,29.83,SSE,165,11.5,11.5,57,0.00,OVC,,0.00,16.2,WeatherDisplay:10.37,2013-01-11 20:06:00,
2013-01-11 14:11:00,69.4,52.5,29.83,SW,219,11.5,11.5,55,0.00,OVC,,0.00,20.0,WeatherDisplay:10.37,2013-01-11 20:11:00,
2013-01-11 14:16:00,69.4,52.5,29.83,SSW,205,5.8,5.8,55,0.00,OVC,,0.00,17.4,WeatherDisplay:10.37,2013-01-11 20:16:00,
2013-01-11 14:21:00,69.1,52.2,29.83,SSW,200,11.5,11.5,55,0.00,OVC,,0.00,19.9,WeatherDisplay:10.37,2013-01-11 20:21:00,
2013-01-11 14:24:00,68.9,51.6,29.83,WSW,240,13.8,13.8,54,0.00,OVC,,0.00,18.8,WeatherDisplay:10.37,2013-01-11 20:24:00,
2013-01-11 14:25:00,68.9,51.6,29.83,SSW,209,5.8,5.8,54,0.00,OVC,,0.00,14.6,WeatherDisplay:10.37,2013-01-11 20:25:00,
2013-01-11 14:26:00,68.9,51.6,29.83,WSW,240,13.8,13.8,54,0.00,OVC,,0.00,18.8,WeatherDisplay:10.37,2013-01-11 20:26:00,
2013-01-11 14:33:00,68.9,51.6,29.83,WSW,240,13.8,13.8,54,0.00,OVC,,0.00,18.8,WeatherDisplay:10.37,2013-01-11 20:33:00,
2013-01-11 14:45:00,69.4,51.5,29.82,South,169,11.5,11.5,53,0.00,OVC,,0.00,11.4,WeatherDisplay:10.37,2013-01-11 20:45:00,
2013-01-11 14:50:00,69.5,51.6,29.82,South,186,11.5,11.5,53,0.00,OVC,,0.00,10.7,WeatherDisplay:10.37,2013-01-11 20:50:00,
2013-01-11 15:13:00,69.1,53.2,29.83,South,191,4.6,4.6,57,0.00,OVC,,0.00,15.6,WeatherDisplay:10.37,2013-01-11 21:13:00,
2013-01-11 15:21:00,69.1,53.2,29.83,South,191,4.6,4.6,57,0.00,OVC,,0.00,15.6,WeatherDisplay:10.37,2013-01-11 21:21:00,
2013-01-11 15:26:00,69.2,53.8,29.83,South,191,3.5,3.5,58,0.00,OVC,,0.00,15.5,WeatherDisplay:10.37,2013-01-11 21:26:00,
2013-01-11 15:31:00,69.3,53.4,29.83,SSE,153,3.5,3.5,57,0.00,OVC,,0.00,10.9,WeatherDisplay:10.37,2013-01-11 21:31:00,
2013-01-11 15:36:00,69.2,53.3,29.82,North,355,3.5,3.5,57,0.00,OVC,,0.00,8.6,WeatherDisplay:10.37,2013-01-11 21:36:00,
2013-01-11 15:41:00,69.2,53.3,29.83,SSW,194,4.6,4.6,57,0.00,OVC,,0.00,10.0,WeatherDisplay:10.37,2013-01-11 21:41:00,
2013-01-11 15:46:00,69.2,53.8,29.82,South,177,4.6,4.6,58,0.00,OVC,,0.00,12.1,WeatherDisplay:10.37,2013-01-11 21:46:00,
2013-01-11 15:51:00,69.4,54.0,29.82,South,176,5.8,5.8,58,0.00,OVC,,0.00,12.5,WeatherDisplay:10.37,2013-01-11 21:51:00,
2013-01-11 15:56:00,69.5,54.1,29.82,WNW,296,3.5,3.5,58,0.00,OVC,,0.00,11.8,WeatherDisplay:10.37,2013-01-11 21:56:00,
2013-01-11 16:01:00,70.1,54.2,29.82,SSW,199,4.6,4.6,57,0.00,CLR,,0.00,11.8,WeatherDisplay:10.37,2013-01-11 22:01:00,
2013-01-11 16:06:00,70.3,54.3,29.82,South,181,5.8,5.8,57,0.00,CLR,,0.00,11.4,WeatherDisplay:10.37,2013-01-11 22:06:00,
2013-01-11 16:11:00,70.4,54.0,29.82,SE,144,9.2,9.2,56,0.00,CLR,,0.00,9.5,WeatherDisplay:10.37,2013-01-11 22:11:00,
2013-01-11 16:16:00,70.4,54.0,29.82,South,189,4.6,4.6,56,0.00,CLR,,0.00,5.1,WeatherDisplay:10.37,2013-01-11 22:16:00,
2013-01-11 16:20:00,69.3,54.4,29.82,South,175,5.8,5.8,59,0.00,CLR,,0.00,3.2,WeatherDisplay:10.37,2013-01-11 22:20:00,
2013-01-11 16:22:00,70.0,54.1,29.82,SSE,161,4.6,4.6,57,0.00,CLR,,0.00,4.9,WeatherDisplay:10.37,2013-01-11 22:22:00,
2013-01-11 16:30:00,68.8,54.8,29.81,SE,142,5.8,5.8,61,0.00,CLR,,0.00,5.8,WeatherDisplay:10.37,2013-01-11 22:30:00,
2013-01-11 16:40:00,68.5,55.0,29.82,SSW,202,4.6,4.6,62,0.00,CLR,,0.00,6.7,WeatherDisplay:10.37,2013-01-11 22:40:00,
2013-01-11 16:48:00,68.5,55.0,29.82,SSW,202,4.6,4.6,62,0.00,CLR,,0.00,6.7,WeatherDisplay:10.37,2013-01-11 22:48:00,
2013-01-11 16:58:00,68.0,56.2,29.82,SSW,194,6.9,6.9,66,0.00,CLR,,0.00,3.7,WeatherDisplay:10.37,2013-01-11 22:58:00,
2013-01-11 16:59:00,68.1,55.9,29.82,WSW,244,6.9,6.9,65,0.00,CLR,,0.00,3.3,WeatherDisplay:10.37,2013-01-11 22:59:00,
2013-01-11 17:05:00,68.0,56.2,29.82,SSW,194,6.9,6.9,66,0.00,CLR,,0.00,3.7,WeatherDisplay:10.37,2013-01-11 23:05:00,
2013-01-11 17:16:00,67.6,56.7,29.82,SSW,199,3.5,3.5,68,0.00,CLR,,0.00,2.1,WeatherDisplay:10.37,2013-01-11 23:16:00,
2013-01-11 17:20:00,67.6,56.7,29.82,SSW,199,3.5,3.5,68,0.00,CLR,,0.00,2.1,WeatherDisplay:10.37,2013-01-11 23:20:00,
2013-01-11 17:35:00,66.9,56.8,29.82,SSE,163,4.6,4.6,70,0.00,CLR,,0.00,0.5,WeatherDisplay:10.37,2013-01-11 23:35:00,
2013-01-11 17:36:00,66.7,57.0,29.82,South,172,4.6,4.6,71,0.00,CLR,,0.00,0.0,WeatherDisplay:10.37,2013-01-11 23:36:00,
2013-01-11 17:38:00,66.4,56.7,29.82,SE,141,3.5,3.5,71,0.00,CLR,,0.00,0.0,WeatherDisplay:10.37,2013-01-11 23:38:00,
2013-01-11 17:40:00,66.7,57.0,29.82,South,172,4.6,4.6,71,0.00,CLR,,0.00,0.0,WeatherDisplay:10.37,2013-01-11 23:40:00,
2013-01-11 17:45:00,66.7,57.0,29.82,South,172,4.6,4.6,71,0.00,CLR,,0.00,0.0,WeatherDisplay:10.37,2013-01-11 23:45:00,
2013-01-11 17:58:00,66.1,57.2,29.83,South,171,2.3,2.3,73,0.00,CLR,,0.00,0.0,WeatherDisplay:10.37,2013-01-11 23:58:00,
2013-01-11 18:03:00,66.1,57.2,29.83,South,171,2.3,2.3,73,0.00,CLR,,0.00,0.0,WeatherDisplay:10.37,2013-01-12 00:03:00,
2013-01-11 18:04:00,65.9,57.4,29.83,SE,142,3.5,3.5,74,0.00,CLR,,0.00,0.0,WeatherDisplay:10.37,2013-01-12 00:04:00,
2013-01-11 18:08:00,65.9,57.4,29.83,SE,142,3.5,3.5,74,0.00,CLR,,0.00,0.0,WeatherDisplay:10.37,2013-01-12 00:08:00,
2013-01-11 18:25:00,65.4,57.3,29.83,SSE,163,2.0,2.0,75,0.00,CLR,,0.00,0.0,WeatherDisplay:10.37,2013-01-12 00:25:00,
2013-01-11 18:30:00,65.3,57.5,29.83,SSE,158,5.8,5.8,76,0.00,CLR,,0.00,0.0,WeatherDisplay:10.37,2013-01-12 00:30:00,
2013-01-11 18:35:00,65.2,57.4,29.83,South,186,6.9,6.9,76,0.00,CLR,,0.00,0.0,WeatherDisplay:10.37,2013-01-12 00:35:00,
2013-01-11 18:40:00,65.2,57.4,29.83,SSE,164,3.5,3.5,76,0.00,CLR,,0.00,0.0,WeatherDisplay:10.37,2013-01-12 00:40:00,
2013-01-11 18:45:00,65.1,57.7,29.83,SSE,167,2.0,2.0,77,0.00,CLR,,0.00,0.0,WeatherDisplay:10.37,2013-01-12 00:45:00,
2013-01-11 18:50:00,65.0,57.6,29.83,South,169,2.3,2.3,77,0.00,CLR,,0.00,0.0,WeatherDisplay:10.37,2013-01-12 00:50:00,
2013-01-11 18:55:00,64.9,57.5,29.83,SSE,165,3.5,3.5,77,0.00,CLR,,0.00,0.0,WeatherDisplay:10.37,2013-01-12 00:55:00,
2013-01-11 19:00:00,64.7,57.3,29.83,SSE,165,1.2,0.0,77,0.00,CLR,,0.00,0.0,WeatherDisplay:10.37,2013-01-12 01:00:00,
2013-01-11 19:05:00,64.6,57.6,29.84,SSE,165,1.2,0.0,78,0.00,CLR,,0.00,0.0,WeatherDisplay:10.37,2013-01-12 01:05:00,
2013-01-11 19:10:00,64.4,57.4,29.84,West,275,2.3,0.0,78,0.00,CLR,,0.00,0.0,WeatherDisplay:10.37,2013-01-12 01:10:00,
2013-01-11 19:15:00,64.2,57.5,29.84,SE,144,1.2,1.2,79,0.00,CLR,,0.00,0.0,WeatherDisplay:10.37,2013-01-12 01:15:00,
2013-01-11 19:20:00,64.1,57.5,29.83,SE,144,1.2,0.0,79,0.00,CLR,,0.00,0.0,WeatherDisplay:10.37,2013-01-12 01:20:00,
2013-01-11 19:25:00,63.9,57.6,29.84,SE,144,1.2,0.0,80,0.00,CLR,,0.00,0.0,WeatherDisplay:10.37,2013-01-12 01:25:00,
2013-01-11 19:30:00,63.9,57.6,29.84,SE,144,1.2,1.2,80,0.00,CLR,,0.00,0.0,WeatherDisplay:10.37,2013-01-12 01:30:00,
2013-01-11 19:35:00,63.8,57.5,29.84,SE,144,1.2,1.2,80,0.00,CLR,,0.00,0.0,WeatherDisplay:10.37,2013-01-12 01:35:00,
2013-01-11 19:40:00,63.7,57.8,29.85,SSE,148,2.3,2.3,81,0.00,CLR,,0.00,0.0,WeatherDisplay:10.37,2013-01-12 01:40:00,
2013-01-11 19:45:00,63.6,57.7,29.84,SE,140,3.5,3.5,81,0.00,CLR,,0.00,0.0,WeatherDisplay:10.37,2013-01-12 01:45:00,
2013-01-11 19:50:00,63.6,57.7,29.84,SSE,161,4.6,4.6,81,0.00,CLR,,0.00,0.0,WeatherDisplay:10.37,2013-01-12 01:50:00,
2013-01-11 19:55:00,63.5,57.6,29.84,SSE,148,3.5,3.5,81,0.00,CLR,,0.00,0.0,WeatherDisplay:10.37,2013-01-12 01:55:00,
2013-01-11 20:00:00,63.5,57.9,29.84,South,169,3.5,3.5,82,0.00,CLR,,0.00,0.0,WeatherDisplay:10.37,2013-01-12 02:00:00,
2013-01-11 20:05:00,63.4,57.8,29.84,South,172,3.5,3.5,82,0.00,CLR,,0.00,0.0,WeatherDisplay:10.37,2013-01-12 02:05:00,
2013-01-11 20:10:00,63.5,57.9,29.84,SE,146,3.5,3.5,82,0.00,CLR,,0.00,0.0,WeatherDisplay:10.37,2013-01-12 02:10:00,
2013-01-11 20:15:00,63.4,58.1,29.84,South,178,3.5,3.5,83,0.00,CLR,,0.00,0.0,WeatherDisplay:10.37,2013-01-12 02:15:00,
2013-01-11 20:20:00,63.4,58.1,29.84,South,174,3.5,3.5,83,0.00,CLR,,0.00,0.0,WeatherDisplay:10.37,2013-01-12 02:20:00,
2013-01-11 20:25:00,63.4,58.1,29.84,SSE,153,3.5,3.5,83,0.00,CLR,,0.00,0.0,WeatherDisplay:10.37,2013-01-12 02:25:00,
2013-01-11 20:30:00,63.3,58.4,29.85,SE,142,3.5,3.5,84,0.00,CLR,,0.00,0.0,WeatherDisplay:10.37,2013-01-12 02:30:00,
2013-01-11 20:35:00,63.3,58.4,29.84,SE,144,5.8,5.8,84,0.00,CLR,,0.00,0.0,WeatherDisplay:10.37,2013-01-12 02:35:00,
2013-01-11 20:40:00,63.2,58.6,29.84,SSE,164,6.9,6.9,85,0.00,CLR,,0.00,0.0,WeatherDisplay:10.37,2013-01-12 02:40:00,
2013-01-11 20:45:00,63.2,58.6,29.85,SSE,155,3.5,3.5,85,0.00,CLR,,0.00,0.0,WeatherDisplay:10.37,2013-01-12 02:45:00,
2013-01-11 20:50:00,63.2,58.6,29.84,SE,137,6.9,6.9,85,0.00,CLR,,0.00,0.0,WeatherDisplay:10.37,2013-01-12 02:50:00,
2013-01-11 20:55:00,63.2,58.9,29.85,SSE,163,5.0,5.0,86,0.00,CLR,,0.00,0.0,WeatherDisplay:10.37,2013-01-12 02:55:00,
2013-01-11 21:00:00,63.2,58.9,29.85,South,173,3.5,3.5,86,0.00,CLR,,0.00,0.0,WeatherDisplay:10.37,2013-01-12 03:00:00,
2013-01-11 21:05:00,63.2,58.9,29.86,SSE,149,3.5,3.5,86,0.00,CLR,,0.00,0.0,WeatherDisplay:10.37,2013-01-12 03:05:00,
2013-01-11 21:10:00,63.2,58.9,29.85,South,174,3.5,3.5,86,0.00,CLR,,0.00,0.0,WeatherDisplay:10.37,2013-01-12 03:10:00,
2013-01-11 21:15:00,63.2,59.3,29.85,SSE,151,4.6,4.6,87,0.00,CLR,,0.00,0.0,WeatherDisplay:10.37,2013-01-12 03:15:00,
2013-01-11 21:20:00,63.1,59.2,29.85,SSW,199,6.9,6.9,87,0.00,CLR,,0.00,0.0,WeatherDisplay:10.37,2013-01-12 03:20:00,
2013-01-11 21:25:00,63.1,59.2,29.85,South,190,3.5,3.5,87,0.00,CLR,,0.00,0.0,WeatherDisplay:10.37,2013-01-12 03:25:00,
2013-01-11 21:30:00,63.0,59.1,29.85,South,186,3.5,3.5,87,0.00,CLR,,0.00,0.0,WeatherDisplay:10.37,2013-01-12 03:30:00,
2013-01-11 21:35:00,63.0,59.4,29.85,South,178,10.4,10.4,88,0.00,CLR,,0.00,0.0,WeatherDisplay:10.37,2013-01-12 03:35:00,
2013-01-11 21:40:00,62.9,59.3,29.85,SSE,149,4.6,4.6,88,0.00,CLR,,0.00,0.0,WeatherDisplay:10.37,2013-01-12 03:40:00,
2013-01-11 21:45:00,62.9,59.3,29.85,South,180,3.5,3.5,88,0.00,CLR,,0.00,0.0,WeatherDisplay:10.37,2013-01-12 03:45:00,
2013-01-11 21:50:00,62.9,59.3,29.85,SE,128,3.5,3.5,88,0.00,CLR,,0.00,0.0,WeatherDisplay:10.37,2013-01-12 03:50:00,
2013-01-11 21:55:00,62.9,59.6,29.85,South,172,3.5,3.5,89,0.00,CLR,,0.00,0.0,WeatherDisplay:10.37,2013-01-12 03:55:00,
2013-01-11 22:00:00,62.9,59.6,29.86,South,176,3.5,3.5,89,0.00,CLR,,0.00,0.0,WeatherDisplay:10.37,2013-01-12 04:00:00,
2013-01-11 22:05:00,62.9,59.6,29.85,South,188,6.9,6.9,89,0.00,CLR,,0.00,0.0,WeatherDisplay:10.37,2013-01-12 04:05:00,
2013-01-11 22:10:00,63.0,59.7,29.85,South,169,5.8,5.8,89,0.00,CLR,,0.00,0.0,WeatherDisplay:10.37,2013-01-12 04:10:00,
2013-01-11 22:15:00,63.1,60.1,29.85,WSW,244,8.1,8.1,90,0.00,CLR,,0.00,0.0,WeatherDisplay:10.37,2013-01-12 04:15:00,
2013-01-11 22:20:00,63.2,60.2,29.86,South,176,5.8,5.8,90,0.00,CLR,,0.00,0.0,WeatherDisplay:10.37,2013-01-12 04:20:00,
2013-01-11 22:25:00,63.3,60.3,29.85,South,184,9.2,9.2,90,0.00,CLR,,0.00,0.0,WeatherDisplay:10.37,2013-01-12 04:25:00,
2013-01-11 22:30:00,63.4,60.4,29.86,South,176,3.5,3.5,90,0.00,CLR,,0.00,0.0,WeatherDisplay:10.37,2013-01-12 04:30:00,
2013-01-11 22:35:00,63.4,60.4,29.86,South,180,4.6,4.6,90,0.00,CLR,,0.00,0.0,WeatherDisplay:10.37,2013-01-12 04:35:00,
2013-01-11 22:40:00,63.5,60.5,29.86,South,189,4.0,4.0,90,0.00,CLR,,0.00,0.0,WeatherDisplay:10.37,2013-01-12 04:40:00,
2013-01-11 22:45:00,63.6,60.6,29.86,South,181,5.8,5.8,90,0.00,CLR,,0.00,0.0,WeatherDisplay:10.37,2013-01-12 04:45:00,
2013-01-11 22:50:00,63.6,60.6,29.86,SSW,194,3.5,3.5,90,0.00,CLR,,0.00,0.0,WeatherDisplay:10.37,2013-01-12 04:50:00,
2013-01-11 22:55:00,63.7,60.7,29.86,SE,146,3.5,3.5,90,0.00,CLR,,0.00,0.0,WeatherDisplay:10.37,2013-01-12 04:55:00,
2013-01-11 23:00:00,63.8,60.8,29.86,South,188,12.7,12.7,90,0.00,CLR,,0.00,0.0,WeatherDisplay:10.37,2013-01-12 05:00:00,
2013-01-11 23:05:00,63.8,60.8,29.87,SSW,198,3.5,3.5,90,0.00,CLR,,0.00,0.0,WeatherDisplay:10.37,2013-01-12 05:05:00,
2013-01-11 23:10:00,63.9,60.9,29.87,South,188,5.8,5.8,90,0.00,CLR,,0.00,0.0,WeatherDisplay:10.37,2013-01-12 05:10:00,
2013-01-11 23:15:00,63.9,60.9,29.87,SW,220,3.5,3.5,90,0.00,CLR,,0.00,0.0,WeatherDisplay:10.37,2013-01-12 05:15:00,
2013-01-11 23:20:00,64.0,61.0,29.87,South,173,4.6,4.6,90,0.00,CLR,,0.00,0.0,WeatherDisplay:10.37,2013-01-12 05:20:00,
2013-01-11 23:25:00,64.0,61.0,29.87,South,190,3.5,3.5,90,0.00,CLR,,0.00,0.0,WeatherDisplay:10.37,2013-01-12 05:25:00,
2013-01-11 23:30:00,64.0,61.0,29.87,South,178,3.5,3.5,90,0.00,CLR,,0.00,0.0,WeatherDisplay:10.37,2013-01-12 05:30:00,
2013-01-11 23:35:00,64.1,61.4,29.87,SSW,205,3.5,3.5,91,0.00,CLR,,0.00,0.0,WeatherDisplay:10.37,2013-01-12 05:35:00,
2013-01-11 23:40:00,64.1,61.4,29.87,SSE,158,5.8,0.0,91,0.00,CLR,,0.00,0.0,WeatherDisplay:10.37,2013-01-12 05:40:00,
2013-01-11 23:45:00,64.2,61.5,29.86,SSW,200,3.5,3.5,91,0.00,CLR,,0.00,0.0,WeatherDisplay:10.37,2013-01-12 05:45:00,
2013-01-11 23:50:00,64.3,61.6,29.86,South,181,4.6,4.6,91,0.00,CLR,,0.00,0.0,WeatherDisplay:10.37,2013-01-12 05:50:00,
2013-01-11 23:55:00,64.3,61.6,29.86,SSE,164,3.5,3.5,91,0.00,CLR,,0.00,0.0,WeatherDisplay:10.37,2013-01-12 05:55:00,